Location: Unspecified
(0.0000°N, 0.0000°E)
Time: 11:49:50
(UTC+00:00)

Vanguard 2 - Pass Details

Date: 20 November 2019
Orbit: 553 x 2938 km, 32.9° (Epoch: 14 December)

Event Time Altitude Azimuth Distance (km) Brightness Sun altitude
Rises 06:16:39 0° 255° (WSW) 6,715 11.8 7.3°
Reaches altitude 10° 06:22:02 10° 263° (W) 5,525 11.4 8.6°
Maximum altitude 06:35:39 34° 322° (NW) 3,142 10.3 11.8°
Drops below altitude 10° 06:45:08 10° 24° (NNE) 3,825 11.2 14.0°
Sets 06:48:10 0° 34° (NNE) 4,491 11.6 14.7°
